Tampa, FL

11:17 PM EDT on September 27, 2016 (GMT -0400)
Tampa International

Weather History for KTPA - September, 2012

Change the Weather History Date:

Wednesday, September 26, 2012

  Actual Average Record
Temperature  
Mean Temperature 81 °F 80 °F  
Max Temperature 89 °F 88 °F 94 °F (1972)
Min Temperature 72 °F 73 °F 64 °F (1991)
Degree Days  
Heating Degree Days 0 0  
Month to date heating degree days 0 0  
Since 1 July heating degree days 0 0  
Cooling Degree Days 16 16  
Month to date cooling degree days 439 443  
Year to date cooling degree days 3359 2958  
Growing Degree Days 30 (Base 50)    
Moisture  
Dew Point 69 °F    
Average Humidity 70    
Maximum Humidity 93    
Minimum Humidity 46    
Precipitation  
Precipitation 0.00 in 0.16 in 7.59 in (1997)
Month to date precipitation 5.45 5.69  
Year to date precipitation 50.41 39.41  
Sea Level Pressure  
Sea Level Pressure 30.09 in    
Wind  
Wind Speed 4 mph (NE)    
Max Wind Speed 10 mph    
Max Gust Speed 18 mph    
Visibility 10 miles    
Events      
T = Trace of Precipitation, MM = Missing Value Source: NWS Daily Summary

Daily Weather History Graph

Daily Weather History Graph

Search for Another Location

Airport or City:

Trip Planner

Search our weather history database for the weather conditions in past years. The results will help you decide how hot, cold, wet, or windy it might be!

Date:

Astronomy

Sep. 26, 2012 Rise Set
Actual Time 7:20 AM EDT 7:21 PM EDT
Civil Twilight 6:57 AM EDT 7:44 PM EDT
Nautical Twilight 6:30 AM EDT 8:11 PM EDT
Astronomical Twilight 6:02 AM EDT 8:39 PM EDT
Moon 5:08 PM EDT (9/26) 4:00 AM EDT (9/26)
Length of Visible Light 12h 47m
Length of Day
12h 00m
Waxing Gibbous, 88% of the Moon is Illuminated
Sep 26
Waxing Gibbous
Sep 29
Full
Oct 8
Last Quarter
Oct 15
New
Oct 21
First Quarter

Hourly Weather History & Observations

Time (EDT) Temp. Heat Index Dew Point Humidity Pressure Visibility Wind Dir Wind Speed Gust Speed Precip Events Conditions
12:53 AM 75.2 °F - 69.8 °F 83% 30.10 in 10.0 mi ENE 4.6 mph - N/A   Scattered Clouds
1:53 AM 75.0 °F - 70.0 °F 84% 30.09 in 10.0 mi ENE 4.6 mph - N/A   Mostly Cloudy
2:53 AM 73.9 °F - 70.0 °F 87% 30.07 in 10.0 mi Variable 3.5 mph - N/A   Scattered Clouds
3:53 AM 73.4 °F - 69.8 °F 88% 30.06 in 10.0 mi Calm Calm - N/A   Scattered Clouds
4:53 AM 73.0 °F - 70.0 °F 90% 30.05 in 10.0 mi NNE 3.5 mph - N/A   Scattered Clouds
5:53 AM 73.0 °F - 70.0 °F 90% 30.07 in 10.0 mi Calm Calm - N/A   Scattered Clouds
6:17 AM 73.4 °F - 69.8 °F 88% 30.08 in 10.0 mi Calm Calm - N/A   Mostly Cloudy
6:53 AM 73.0 °F - 70.0 °F 90% 30.09 in 8.0 mi ENE 3.5 mph - N/A   Overcast
7:53 AM 73.0 °F - 71.1 °F 93% 30.09 in 5.0 mi ENE 4.6 mph - N/A   Overcast
8:53 AM 73.9 °F - 71.1 °F 91% 30.12 in 8.0 mi Variable 4.6 mph - N/A   Mostly Cloudy
9:53 AM 78.1 °F - 71.1 °F 79% 30.12 in 10.0 mi NE 3.5 mph - N/A   Scattered Clouds
10:53 AM 82.9 °F 85.0 °F 66.0 °F 56% 30.12 in 10.0 mi ESE 3.5 mph - N/A   Scattered Clouds
11:53 AM 84.0 °F 87.8 °F 69.1 °F 61% 30.12 in 10.0 mi Variable 5.8 mph - N/A   Scattered Clouds
12:53 PM 86.0 °F 90.7 °F 70.0 °F 59% 30.12 in 10.0 mi WSW 5.8 mph - N/A   Scattered Clouds
1:53 PM 87.1 °F 90.6 °F 68.0 °F 53% 30.10 in 10.0 mi West 8.1 mph - N/A   Mostly Cloudy
2:53 PM 87.1 °F 89.2 °F 66.0 °F 49% 30.08 in 10.0 mi West 10.4 mph - N/A   Mostly Cloudy
3:53 PM 88.0 °F 89.3 °F 64.0 °F 45% 30.06 in 10.0 mi West 8.1 mph - N/A   Mostly Cloudy
4:53 PM 88.0 °F 89.3 °F 64.0 °F 45% 30.05 in 10.0 mi West 8.1 mph - N/A   Mostly Cloudy
5:53 PM 87.1 °F 88.9 °F 64.9 °F 48% 30.05 in 10.0 mi NW 6.9 mph - N/A   Mostly Cloudy
6:53 PM 81.0 °F 84.4 °F 70.0 °F 69% 30.09 in 10.0 mi East 5.8 mph - N/A   Mostly Cloudy
7:53 PM 80.1 °F 82.9 °F 69.1 °F 69% 30.11 in 10.0 mi ENE 4.6 mph - N/A   Mostly Cloudy
8:53 PM 80.1 °F 83.2 °F 70.0 °F 71% 30.11 in 10.0 mi East 3.5 mph - N/A   Overcast
9:53 PM 79.0 °F - 71.1 °F 77% 30.12 in 10.0 mi Calm Calm - N/A   Overcast
10:53 PM 79.0 °F - 70.0 °F 74% 30.13 in 10.0 mi East 3.5 mph - N/A   Scattered Clouds
11:53 PM 78.1 °F - 71.1 °F 79% 30.12 in 10.0 mi ENE 4.6 mph - N/A   Mostly Cloudy